Regional Weather Roundup
Issued by NWS Newport/Morehead, NC

Current Version | Previous Version | Graphics & Text | Print | Product List | Glossary On
Versions: 1 2 3 4 5 6 7 8 9 10 11 12 13 14 15 16 17 18 19 20 21 22 23 24 25 26 27 28 29 30 31 32 33 34 35 36 37 38 39 40 41 42 43 44 45 46 47 48 49 50
000 ASUS42 KMHX 300913 RWRMHX WEATHER ROUNDUP FOR EASTERN NORTH CAROLINA NATIONAL WEATHER SERVICE NEWPORT/MOREHEAD CITY NC 500 AM EDT TUE JUN 30 2015 NOTE: "FAIR" INDICATES FEW OR NO CLOUDS BELOW 12,000 FEET WITH NO SIGNIFICANT WEATHER AND/OR OBSTRUCTIONS TO VISIBILITY NCZ015>017-031-032-045>047-102-103-301000- NORTH COAST CITY SKY/WX TMP DP RH WIND PRES REMARKS EDENTON CLEAR 74 71 91 S6 29.95R ELIZABETH CITY CLEAR 74 72 93 S5 29.95R KITTY HAWK SUNNY 72 69 89 CALM 29.95R MANTEO CLEAR 76 73 88 SW6 29.96R $$ NCZ045>047-081-094-103-104-301000- CENTRAL COAST CITY SKY/WX TMP DP RH WIND PRES REMARKS FRISCO CLEAR 77 71 82 SW7 29.97R SWANQUARTER N/A 77 N/A N/A SW6 29.91S $$ NCZ095-097-098-100-101-301000- SOUTHERN COAST CITY SKY/WX TMP DP RH WIND PRES REMARKS BEAUFORT CLEAR 78 74 87 SW10 29.96R CEDAR ISLAND N/A 75 N/A N/A S5 30.00S JACKSONVILLE CLEAR 72 68 87 SW7 29.95R PINEY ISLAND SUNNY N/A N/A N/A S3 29.96R WILMINGTON CLEAR 75 69 81 SW7 29.96R $$ NCZ011>013-027>030-043-044-078>080-089-090>093-098-301000- COASTAL PLAIN CITY SKY/WX TMP DP RH WIND PRES REMARKS AHOSKIE CLEAR 64 64 97 CALM 29.94R CLINTON CLEAR 69 67 95 CALM 29.95S ELIZABETHTOWN CLEAR 71 69 91 SW3 29.95S GOLDSBORO CLEAR 71 68 92 VRB2 29.92S GREENVILLE CLEAR 72 70 94 SW5 29.96S HAVELOCK CLEAR 72 68 87 S3 29.97R KENANSVILLE CLEAR 68 67 96 CALM 29.95S KINSTON CLEAR 70 69 96 S5 29.95S NEW BERN CLEAR 71 68 90 S3 29.97R RICHLANDS CLEAR 70 64 83 SW5 29.96R ROCKY MOUNT CLEAR 68 66 93 S5 29.93S WASHINGTON CLEAR 71 69 94 S3 29.95R WHITEVILLE CLEAR 72 69 88 CALM 29.95F $$ AMZ130-135-150-152-154-156-158-170-250-252-270-ANZ085-086-088-633-658-670-301000- MARINE OBSERVATIONS STATION/POSITION TIME TEMP WIND PRES WAVE SWELL AIR SEA DIR/SP/G HT/PER HT/PER (UTC) (F) (DEG/KT/KT) (MB) (FT/S) (FT/S) CHESAPEAKE LIGHT 0900 75 160/ 13/ 13 1014.6 64 E VA BEACH 0850 75 75 120/ 6/ 8 1014.0 4/ 7 3/ 7 DUCK 0800 73 71 140/ 8/ 8 1012.9 2 E DUCK 0811 73 N/A 3/ 8 OREGON INLET 0800 78 72 230/ 8/ 10 1013.8 13E OREGON INLT 0900 75 N/A 4/ 7 HATTERAS CG 0800 78 81 220/ 5/ 6 1013.9 DIAMOND BUOY 0850 79 80 240/ 10/ 12 1014.6 4/ 7 3/ 7 CAPE LOOKOUT 0900 79 240/ 8/ 11 1014.3 BEAUFORT LAB 0800 79 81 230/ 4/ 9 1013.6 30 SE NEW RVR IN 0808 80 81 250/ 14/ 19 1014.9 27 SE WRIGHTSVLE 0800 81 250/ 14/ 16 N/A 5 SE WRIGHTSVLE 0808 79 79 250/ 12/ 16 1014.3 225 S CAPE HAT 0850 78 80 230/ 23/ 29 1016.3 6/ 6 2/ 9 41 SE CHARLESTON 0850 81 83 250/ 14/ 17 1014.6 4/ 8 3/ 8 $$

USA.gov is the U.S. government's official web portal to all federal, state and local government web resources and services.